Weather History for Asheville, NC

Change the Weather History Date:

Tuesday, September 10, 2013

  Actual Average Record
Temperature  
Mean Temperature 74 °F 68 °F  
Max Temperature 85 °F 79 °F 91 °F (1897)
Min Temperature 62 °F 58 °F 40 °F (1998)
Degree Days  
Heating Degree Days 0 1  
Month to date heating degree days 0 2  
Since 1 July heating degree days 5 4  
Cooling Degree Days 9 4  
Month to date cooling degree days 73 50  
Year to date cooling degree days 811 807  
Growing Degree Days 23 (Base 50)    
Moisture  
Dew Point 64 °F    
Average Humidity 74    
Maximum Humidity 100    
Minimum Humidity 48    
Precipitation  
Precipitation 0.00 in 0.13 in 2.06 in (1888)
Month to date precipitation 0.40 1.34  
Year to date precipitation 59.16 32.95  
Snow  
Snow 0.00 in 0.00 in 0.00 in ()
Month to date snowfall 0.0 0.0  
Since 1 July snowfall 0.0 0.0  
Since 1 September snowfall 0.0 0.0  
Snow Depth 0.00 in    
Sea Level Pressure  
Sea Level Pressure 30.25 in    
Wind  
Wind Speed 2 mph (SSE)    
Max Wind Speed 10 mph    
Max Gust Speed 17 mph    
Visibility 4 miles    
Events Fog    
T = Trace of Precipitation, MM = Missing Value Source: NWS Daily Summary

Daily Weather History Graph

Daily Weather History Graph

Search for Another Location

Airport:

Trip Planner

Search our weather history database for the weather conditions in past years. The results will help you decide how hot, cold, wet, or windy it might be!

Date:

Astronomy

Sep. 10, 2013 Rise Set
Actual Time 7:09 AM EDT 7:44 PM EDT
Civil Twilight 6:43 AM EDT 8:09 PM EDT
Nautical Twilight 6:13 AM EDT 8:39 PM EDT
Astronomical Twilight 5:42 AM EDT 9:10 PM EDT
Moon 12:21 PM EDT (9/10) 10:59 PM EDT (9/10)
Length of Visible Light 13h 26m
Length of Day
12h 34m
Waxing Crescent, 28% of the Moon is Illuminated
Sep 10
Waxing Crescent
Sep 12
First Quarter
Sep 19
Full
Sep 26
Last Quarter
Oct 4
New

Hourly Weather History & Observations

Time (EDT) Temp. Heat Index Dew Point Humidity Pressure Visibility Wind Dir Wind Speed Gust Speed Precip Events Conditions
12:54 AM 66.9 °F - 64.9 °F 93% 30.17 in 4.0 mi Calm Calm - N/A   Clear
1:09 AM 64.4 °F - 64.4 °F 100% 30.25 in 1.5 mi Calm Calm - N/A   Partly Cloudy
1:12 AM 64.4 °F - 64.4 °F 100% 30.25 in 1.0 mi Calm Calm - N/A   Mist
1:18 AM 64.4 °F - 64.4 °F 100% 30.25 in 1.5 mi Calm Calm - N/A   Partly Cloudy
1:20 AM 64.4 °F - 64.4 °F 100% 30.25 in 3.0 mi Calm Calm - N/A   Partly Cloudy
1:50 AM 64.4 °F - 64.4 °F 100% 30.25 in 3.0 mi Calm Calm - N/A   Scattered Clouds
1:54 AM 64.9 °F - 64.0 °F 97% 30.17 in 2.5 mi Calm Calm - N/A   Partly Cloudy
2:01 AM 64.4 °F - 64.4 °F 100% 30.25 in 1.5 mi Calm Calm - N/A   Scattered Clouds
2:05 AM 64.4 °F - 64.4 °F 100% 30.25 in 1.0 mi Calm Calm - N/A   Mist
2:08 AM 64.4 °F - 62.6 °F 94% 30.25 in 1.5 mi Calm Calm - N/A   Partly Cloudy
2:14 AM 64.4 °F - 64.4 °F 100% 30.25 in 3.0 mi Calm Calm - N/A   Partly Cloudy
2:26 AM 64.4 °F - 62.6 °F 94% 30.26 in 1.8 mi Calm Calm - N/A   Scattered Clouds
2:31 AM 64.4 °F - 62.6 °F 94% 30.26 in 1.0 mi Calm Calm - N/A   Mist
2:42 AM 64.4 °F - 62.6 °F 94% 30.26 in 1.5 mi Calm Calm - N/A   Scattered Clouds
2:45 AM 64.4 °F - 62.6 °F 94% 30.26 in 3.0 mi Calm Calm - N/A   Scattered Clouds
2:54 AM 64.0 °F - 63.0 °F 96% 30.19 in 5.0 mi Calm Calm - N/A   Partly Cloudy
3:03 AM 64.4 °F - 62.6 °F 94% 30.26 in 1.8 mi Calm Calm - N/A   Partly Cloudy
3:06 AM 64.4 °F - 62.6 °F 94% 30.26 in 1.2 mi Calm Calm - N/A   Partly Cloudy
3:08 AM 64.4 °F - 62.6 °F 94% 30.26 in 0.8 mi Calm Calm - N/A   Mist
3:12 AM 62.6 °F - 62.6 °F 100% 30.26 in 0.2 mi Calm Calm - N/A Fog Fog
3:41 AM 62.6 °F - 62.6 °F 100% 30.27 in 0.8 mi Calm Calm - N/A   Overcast
3:44 AM 62.6 °F - 62.6 °F 100% 30.27 in 1.5 mi Calm Calm - N/A   Overcast
3:54 AM 64.0 °F - 63.0 °F 96% 30.19 in 1.2 mi Calm Calm - N/A   Overcast
3:59 AM 64.4 °F - 62.6 °F 94% 30.27 in 0.2 mi Calm Calm - N/A Fog Fog
4:45 AM 62.6 °F - 62.6 °F 100% 30.27 in 0.5 mi Calm Calm - N/A Fog Fog
4:54 AM 63.0 °F - 63.0 °F 100% 30.19 in 0.5 mi Calm Calm - N/A Fog Fog
5:01 AM 62.6 °F - 62.6 °F 100% 30.27 in 0.5 mi Calm Calm - N/A Fog Fog
5:25 AM 62.6 °F - 62.6 °F 100% 30.27 in 1.5 mi Calm Calm - N/A   Overcast
5:28 AM 62.6 °F - 62.6 °F 100% 30.27 in 3.0 mi Calm Calm - N/A   Overcast
5:40 AM 62.6 °F - 62.6 °F 100% 30.27 in 1.8 mi Calm Calm - N/A   Overcast
5:54 AM 63.0 °F - 62.1 °F 97% 30.20 in 1.2 mi Calm Calm - N/A   Overcast
6:20 AM 62.6 °F - 62.6 °F 100% 30.28 in 0.8 mi Calm Calm - N/A   Overcast
6:36 AM 62.6 °F - 62.6 °F 100% 30.29 in 0.2 mi Calm Calm - N/A Fog Fog
6:54 AM 62.1 °F - 62.1 °F 100% 30.23 in 0.2 mi Calm Calm - N/A Fog Fog
7:31 AM 62.6 °F - 62.6 °F 100% 30.30 in 0.2 mi Calm Calm - N/A Fog Fog
7:46 AM 62.6 °F - 62.6 °F 100% 30.31 in 0.2 mi Calm Calm - N/A Fog Fog
7:54 AM 62.1 °F - 62.1 °F 100% 30.24 in 0.2 mi Calm Calm - N/A Fog Fog
8:54 AM 63.0 °F - 63.0 °F 100% 30.26 in 0.2 mi Calm Calm - N/A Fog Fog
9:28 AM 64.4 °F - 64.4 °F 100% 30.33 in 0.5 mi Calm Calm - N/A Fog Fog
9:42 AM 64.4 °F - 62.6 °F 94% 30.34 in 1.0 mi Calm Calm - N/A   Overcast
9:54 AM 64.0 °F - 64.0 °F 100% 30.28 in 1.0 mi Calm Calm - N/A   Overcast
10:03 AM 64.4 °F - 64.4 °F 100% 30.34 in 1.0 mi Calm Calm - N/A   Overcast
10:15 AM 66.2 °F - 64.4 °F 94% 30.34 in 2.0 mi Calm Calm - N/A   Mostly Cloudy
10:21 AM 66.2 °F - 64.4 °F 94% 30.34 in 3.0 mi South 3.5 mph - N/A   Scattered Clouds
10:54 AM 71.1 °F - 64.9 °F 81% 30.27 in 7.0 mi Calm Calm - N/A   Clear
11:54 AM 78.1 °F - 64.9 °F 64% 30.25 in 10.0 mi Variable 3.5 mph - N/A   Clear
12:54 PM 81.0 °F 81.9 °F 62.1 °F 52% 30.23 in 10.0 mi SE 4.6 mph - N/A   Clear
1:54 PM 82.9 °F 84.4 °F 64.0 °F 53% 30.22 in 10.0 mi Calm Calm - N/A   Partly Cloudy
2:54 PM 82.0 °F 83.1 °F 63.0 °F 52% 30.21 in 10.0 mi Variable 3.5 mph - N/A   Partly Cloudy
3:54 PM 84.0 °F 84.9 °F 63.0 °F 49% 30.19 in 10.0 mi Variable 4.6 mph - N/A   Partly Cloudy
4:54 PM 82.9 °F 84.4 °F 64.0 °F 53% 30.17 in 10.0 mi South 8.1 mph - N/A   Scattered Clouds
5:54 PM 81.0 °F 82.2 °F 63.0 °F 54% 30.17 in 10.0 mi SSE 9.2 mph - N/A   Clear
6:54 PM 79.0 °F - 64.0 °F 60% 30.18 in 10.0 mi SSE 5.8 mph - N/A   Clear
7:54 PM 75.0 °F - 66.0 °F 73% 30.20 in 10.0 mi South 4.6 mph - N/A   Clear
8:54 PM 73.0 °F - 66.9 °F 81% 30.23 in 10.0 mi Calm Calm - N/A   Clear
9:54 PM 71.1 °F - 66.9 °F 87% 30.25 in 10.0 mi Calm Calm - N/A   Clear
10:54 PM 69.1 °F - 66.0 °F 90% 30.26 in 9.0 mi Calm Calm - N/A   Clear
11:54 PM 66.9 °F - 64.9 °F 93% 30.25 in 7.0 mi Calm Calm - N/A   Clear